• în Republica Moldova
  • Lista ţărilor
  • Pe 7 zile
  • Temperatura apei
  • Hartă satelitară
  • Meteo pe hartă
  • Widget-uri
  • user-avatar
    Intrare

    Meteo pe oră la Barra

    Astăzi, 29 Aprilie, Sâmbătă

    Timp Temperatura Precipitaţii Vânt Presiune Umiditate
    00:00 +14°C° 0 mm 3 m/s 750 mmHg 74%
    01:00 +16°C° 0 mm 3 m/s 750 mmHg 68%
    02:00 +14°C° 0 mm 3 m/s 750 mmHg 65%
    03:00 +14°C° 0 mm 3 m/s 750 mmHg 62%
    04:00 +14°C° 0 mm 4 m/s 750 mmHg 53%
    05:00 +13°C° 0 mm 3 m/s 750 mmHg 53%
    06:00 +13°C° 0 mm 3 m/s 750 mmHg 52%
    07:00 +13°C° 0 mm 3 m/s 750 mmHg 52%
    08:00 +17°C° 0 mm 3 m/s 751 mmHg 48%
    09:00 +20°C° 0 mm 3 m/s 751 mmHg 44%
    10:00 +24°C° 0 mm 2 m/s 751 mmHg 39%
    11:00 +25°C° 0 mm 3 m/s 751 mmHg 39%
    12:00 +26°C° 0 mm 3 m/s 750 mmHg 39%
    13:00 +27°C° 0 mm 3 m/s 750 mmHg 39%
    14:00 +26°C° 0 mm 3 m/s 750 mmHg 42%
    15:00 +26°C° 0 mm 3 m/s 749 mmHg 45%
    16:00 +25°C° 0 mm 3 m/s 749 mmHg 49%
    17:00 +21°C° 0 mm 3 m/s 749 mmHg 59%
    18:00 +18°C° 0 mm 3 m/s 750 mmHg 69%
    19:00 +14°C° 0 mm 2 m/s 750 mmHg 79%
    20:00 +14°C° 0 mm 2 m/s 750 mmHg 78%
    21:00 +14°C° 0 mm 2 m/s 750 mmHg 77%
    22:00 +13°C° 0 mm 3 m/s 751 mmHg 76%
    23:00 +14°C° 0 mm 2 m/s 751 mmHg 74%

    Mâine, 30 Aprilie, Duminică

    Timp Temperatura Precipitaţii Vânt Presiune Umiditate
    00:00 +14°C° 0 mm 2 m/s 750 mmHg 71%
    01:00 +15°C° 0 mm 2 m/s 750 mmHg 69%
    02:00 +15°C° 0 mm 2 m/s 750 mmHg 68%
    03:00 +16°C° 0 mm 2 m/s 750 mmHg 68%
    04:00 +16°C° 0 mm 3 m/s 750 mmHg 68%
    05:00 +17°C° 0 mm 3 m/s 750 mmHg 71%
    06:00 +17°C° 0 mm 3 m/s 750 mmHg 75%
    07:00 +18°C° 0 mm 3 m/s 750 mmHg 78%
    08:00 +20°C° 0 mm 3 m/s 750 mmHg 75%
    09:00 +22°C° 0 mm 4 m/s 751 mmHg 71%
    10:00 +25°C° 0 mm 4 m/s 751 mmHg 67%
    11:00 +26°C° 0 mm 4 m/s 750 mmHg 65%
    12:00 +27°C° 0 mm 4 m/s 750 mmHg 63%
    13:00 +27°C° 0 mm 4 m/s 749 mmHg 61%
    14:00 +27°C° 0,1 mm 4 m/s 749 mmHg 64%
    15:00 +27°C° 0,1 mm 4 m/s 749 mmHg 66%
    16:00 +27°C° 0,1 mm 4 m/s 748 mmHg 69%
    17:00 +25°C° 0,3 mm 4 m/s 749 mmHg 77%
    18:00 +22°C° 0,3 mm 4 m/s 749 mmHg 86%
    19:00 +21°C° 0,3 mm 4 m/s 750 mmHg 94%
    20:00 +21°C° 0,4 mm 4 m/s 750 mmHg 94%
    21:00 +21°C° 0,4 mm 4 m/s 750 mmHg 95%
    22:00 +21°C° 0,4 mm 4 m/s 751 mmHg 95%
    23:00 +21°C° 0,5 mm 4 m/s 751 mmHg 95%

    Poimâine, 1 Mai, Luni

    Timp Temperatura Precipitaţii Vânt Presiune Umiditate
    00:00 +21°C° 0,5 mm 4 m/s 750 mmHg 95%
    01:00 +21°C° 0,5 mm 4 m/s 750 mmHg 94%
    02:00 +21°C° 0,5 mm 4 m/s 750 mmHg 95%
    03:00 +21°C° 0,5 mm 4 m/s 750 mmHg 95%
    04:00 +21°C° 0,5 mm 3 m/s 749 mmHg 96%
    05:00 +21°C° 0,5 mm 3 m/s 750 mmHg 96%
    06:00 +21°C° 0,5 mm 3 m/s 750 mmHg 96%
    07:00 +21°C° 0,5 mm 3 m/s 750 mmHg 96%
    08:00 +22°C° 0,4 mm 3 m/s 751 mmHg 90%
    09:00 +25°C° 0,4 mm 4 m/s 751 mmHg 85%
    10:00 +26°C° 0,4 mm 4 m/s 751 mmHg 79%
    11:00 +27°C° 0,3 mm 4 m/s 750 mmHg 75%
    12:00 +27°C° 0,3 mm 4 m/s 750 mmHg 71%
    13:00 +28°C° 0,3 mm 4 m/s 749 mmHg 66%
    14:00 +28°C° 0,2 mm 4 m/s 749 mmHg 68%
    15:00 +27°C° 0,2 mm 4 m/s 749 mmHg 70%
    16:00 +27°C° 0,2 mm 4 m/s 749 mmHg 71%
    17:00 +25°C° 0 mm 4 m/s 749 mmHg 79%
    18:00 +24°C° 0 mm 3 m/s 749 mmHg 86%
    19:00 +21°C° 0 mm 3 m/s 750 mmHg 93%
    20:00 +21°C° 0,1 mm 3 m/s 750 mmHg 94%
    21:00 +21°C° 0,1 mm 3 m/s 750 mmHg 94%
    22:00 +20°C° 0,1 mm 3 m/s 751 mmHg 95%
    23:00 +20°C° 0,3 mm 3 m/s 750 mmHg 95%

    2 Mai, Marţi

    Timp Temperatura Precipitaţii Vânt Presiune Umiditate
    00:00 +20°C° 0,3 mm 3 m/s 750 mmHg 96%
    01:00 +20°C° 0,3 mm 3 m/s 750 mmHg 96%
    02:00 +20°C° 0,4 mm 3 m/s 750 mmHg 96%
    03:00 +20°C° 0,4 mm 2 m/s 749 mmHg 96%
    04:00 +20°C° 0,4 mm 2 m/s 749 mmHg 97%
    05:00 +20°C° 0,2 mm 2 m/s 750 mmHg 96%
    06:00 +20°C° 0,2 mm 3 m/s 750 mmHg 96%
    07:00 +21°C° 0,2 mm 3 m/s 750 mmHg 95%
    08:00 +22°C° 0,1 mm 3 m/s 751 mmHg 88%
    09:00 +25°C° 0,1 mm 3 m/s 751 mmHg 81%
    10:00 +27°C° 0,1 mm 3 m/s 751 mmHg 74%
    11:00 +27°C° 0,1 mm 3 m/s 750 mmHg 72%
    12:00 +28°C° 0,1 mm 4 m/s 750 mmHg 69%
    13:00 +29°C° 0,1 mm 4 m/s 749 mmHg 66%
    14:00 +28°C° 0,1 mm 4 m/s 749 mmHg 68%
    15:00 +28°C° 0,1 mm 4 m/s 748 mmHg 70%
    16:00 +28°C° 0,1 mm 4 m/s 748 mmHg 72%
    17:00 +26°C° 0,1 mm 3 m/s 749 mmHg 80%
    18:00 +24°C° 0,1 mm 3 m/s 749 mmHg 87%
    19:00 +21°C° 0,1 mm 3 m/s 749 mmHg 95%
    20:00 +21°C° 0,2 mm 3 m/s 750 mmHg 95%
    21:00 +21°C° 0,2 mm 3 m/s 750 mmHg 96%
    22:00 +21°C° 0,2 mm 3 m/s 750 mmHg 96%
    23:00 +20°C° 0,1 mm 3 m/s 750 mmHg 96%

    3 Mai, Miercuri

    Timp Temperatura Precipitaţii Vânt Presiune Umiditate
    00:00 +20°C° 0,1 mm 3 m/s 750 mmHg 96%
    01:00 +20°C° 0,1 mm 3 m/s 750 mmHg 96%
    02:00 +20°C° 0,1 mm 3 m/s 749 mmHg 96%
    03:00 +20°C° 0,1 mm 3 m/s 749 mmHg 96%
    04:00 +20°C° 0,1 mm 3 m/s 749 mmHg 97%
    05:00 +20°C° 0,1 mm 3 m/s 750 mmHg 96%
    06:00 +21°C° 0,1 mm 2 m/s 750 mmHg 96%
    07:00 +21°C° 0,1 mm 2 m/s 750 mmHg 95%
    08:00 +24°C° 0 mm 3 m/s 750 mmHg 88%
    09:00 +25°C° 0 mm 3 m/s 751 mmHg 81%
    10:00 +27°C° 0 mm 3 m/s 751 mmHg 74%
    11:00 +28°C° 0 mm 3 m/s 750 mmHg 69%
    12:00 +29°C° 0 mm 4 m/s 749 mmHg 64%
    13:00 +29°C° 0 mm 4 m/s 749 mmHg 59%
    14:00 +29°C° 0 mm 4 m/s 749 mmHg 61%
    15:00 +29°C° 0 mm 3 m/s 748 mmHg 63%
    16:00 +28°C° 0 mm 3 m/s 748 mmHg 65%
    17:00 +26°C° 0 mm 3 m/s 749 mmHg 75%
    18:00 +23°C° 0 mm 2 m/s 749 mmHg 84%
    19:00 +20°C° 0 mm 2 m/s 750 mmHg 94%
    20:00 +20°C° 0 mm 2 m/s 750 mmHg 94%
    21:00 +19°C° 0 mm 2 m/s 751 mmHg 95%
    22:00 +19°C° 0 mm 2 m/s 751 mmHg 95%
    23:00 +19°C° 0,1 mm 2 m/s 751 mmHg 95%

    4 Mai, Joi

    Timp Temperatura Precipitaţii Vânt Presiune Umiditate
    00:00 +20°C° 0,1 mm 2 m/s 750 mmHg 95%
    01:00 +20°C° 0,1 mm 2 m/s 750 mmHg 95%
    02:00 +20°C° 0 mm 3 m/s 750 mmHg 95%
    03:00 +20°C° 0 mm 3 m/s 750 mmHg 96%
    04:00 +20°C° 0 mm 3 m/s 750 mmHg 96%
    05:00 +20°C° 0,1 mm 3 m/s 750 mmHg 96%
    06:00 +20°C° 0,1 mm 3 m/s 751 mmHg 95%
    07:00 +20°C° 0,1 mm 3 m/s 751 mmHg 95%
    08:00 +22°C° 0,1 mm 4 m/s 751 mmHg 85%
    09:00 +25°C° 0,1 mm 4 m/s 751 mmHg 75%
    10:00 +27°C° 0,1 mm 4 m/s 752 mmHg 65%
    11:00 +28°C° 0,1 mm 5 m/s 751 mmHg 62%
    12:00 +29°C° 0,1 mm 5 m/s 750 mmHg 59%
    13:00 +29°C° 0,1 mm 5 m/s 750 mmHg 56%
    14:00 +29°C° 0,1 mm 5 m/s 750 mmHg 60%
    15:00 +28°C° 0,1 mm 5 m/s 750 mmHg 63%
    16:00 +28°C° 0,1 mm 5 m/s 749 mmHg 66%
    17:00 +26°C° 0,1 mm 5 m/s 750 mmHg 75%
    18:00 +23°C° 0,1 mm 5 m/s 750 mmHg 84%
    19:00 +22°C° 0,1 mm 4 m/s 751 mmHg 93%
    20:00 +21°C° 0,2 mm 4 m/s 751 mmHg 93%
    21:00 +21°C° 0,2 mm 4 m/s 751 mmHg 93%
    22:00 +21°C° 0,2 mm 4 m/s 752 mmHg 93%
    23:00 +21°C° 0,3 mm 5 m/s 751 mmHg 93%
    Arată mai mult